Location: Bodest
(46.3000°N, 22.5667°E)
Time: 16:00:08
(UTC+00:00)

SL-19 R/B - Pass Details

Date: 30 May 2022
Orbit: 874 x 1208 km, 100.6° (Epoch: 03 July)

Event Time Altitude Azimuth Distance (km) Brightness Sun altitude
Rises 18:59:58 0° 11° (N) 4,000 8.2 -7.3°
Reaches altitude 10° 19:02:45 10° 2° (N) 3,074 7.7 -7.6°
Maximum altitude 19:08:57 35° 301° (WNW) 1,843 6.8 -8.4°
Drops below altitude 10° 19:15:18 10° 240° (WSW) 3,149 7.3 -9.2°
Sets 19:18:11 0° 232° (SW) 4,109 7.8 -9.5°
